| time (UTC) | temp C | wind direction | speed KPH | gust KPH | rain 1hr cm | rain 24hr cm | rain mn cm | humidity % | barometer mb |
| 20260507075909 | 11 | 321 | 0.0 | 3.2 | 0.00 | 0.00 | 0.00 | 80 | 1021.0 |
| 20260507074911 | 11 | 275 | 0.0 | 3.2 | 0.00 | 0.00 | 0.00 | 80 | 1021.0 |
| 20260507074407 | 11 | 244 | 0.0 | 3.2 | 0.00 | 0.00 | 0.00 | 81 | 1021.0 |
| 20260507073853 | 11 | 239 | 0.0 | 3.2 | 0.00 | 0.00 | 0.00 | 82 | 1021.1 |
| 20260507073348 | 11 | 284 | 1.6 | 3.2 | 0.00 | 0.00 | 0.00 | 81 | 1021.2 |
| 20260507072840 | 11 | 286 | 3.2 | 4.8 | 0.00 | 0.00 | 0.00 | 81 | 1021.1 |
| 20260507072335 | 11 | 232 | 1.6 | 3.2 | 0.00 | 0.00 | 0.00 | 81 | 1021.1 |
| 20260507071827 | 11 | 261 | 0.0 | 3.2 | 0.00 | 0.00 | 0.00 | 80 | 1020.9 |
| 20260507071321 | 11 | 297 | 0.0 | 3.2 | 0.00 | 0.00 | 0.00 | 80 | 1021.0 |
| 20260507071028 | 11 | 323 | 0.0 | 3.2 | 0.00 | 0.00 | 0.00 | 80 | 1021.1 |
| 20260507070303 | 11 | 211 | 3.2 | 3.2 | 0.00 | 0.00 | 0.00 | 80 | 1020.8 |
| 20260507070012 | 11 | 345 | 1.6 | 6.4 | 0.00 | 0.00 | 0.00 | 79 | 1020.9 |
| 20260507065244 | 11 | 279 | 1.6 | 4.8 | 0.00 | 0.00 | 0.00 | 79 | 1020.8 |
| 20260507064735 | 11 | 318 | 1.6 | 4.8 | 0.00 | 0.00 | 0.00 | 79 | 1020.9 |
| 20260507064225 | 11 | 296 | 4.8 | 8.0 | 0.00 | 0.00 | 0.00 | 79 | 1020.8 |
| 20260507063720 | 11 | 265 | 1.6 | 8.0 | 0.00 | 0.00 | 0.00 | 78 | 1020.8 |
| 20260507063212 | 11 | 203 | 3.2 | 8.0 | 0.00 | 0.00 | 0.00 | 78 | 1020.9 |
| 20260507062703 | 11 | 338 | 6.4 | 6.4 | 0.00 | 0.00 | 0.00 | 79 | 1020.9 |
| 20260507062153 | 11 | 8 | 0.0 | 4.8 | 0.00 | 0.00 | 0.00 | 79 | 1021.0 |
| 20260507061648 | 11 | 111 | 1.6 | 11.3 | 0.00 | 0.00 | 0.00 | 80 | 1020.8 |
| 20260507061140 | 12 | 142 | 0.0 | 3.2 | 0.00 | 0.00 | 0.00 | 80 | 1020.9 |
| 20260507060631 | 12 | 277 | 4.8 | 4.8 | 0.00 | 0.00 | 0.00 | 81 | 1020.9 |
| 20260507060121 | 12 | 328 | 1.6 | 11.3 | 0.00 | 0.00 | 0.00 | 81 | 1020.7 |
| 20260507055616 | 12 | 23 | 4.8 | 6.4 | 0.00 | 0.00 | 0.00 | 82 | 1021.0 |
| 20260507055326 | 12 | 253 | 6.4 | 6.4 | 0.00 | 0.00 | 0.00 | 82 | 1021.0 |
| 20260507054552 | 12 | 92 | 3.2 | 4.8 | 0.00 | 0.00 | 0.00 | 82 | 1021.0 |
| 20260507054047 | 12 | 26 | 3.2 | 8.0 | 0.00 | 0.00 | 0.00 | 82 | 1020.9 |
| 20260507053533 | 12 | 26 | 3.2 | 11.3 | 0.00 | 0.00 | 0.00 | 83 | 1020.9 |
| 20260507053028 | 12 | 174 | 1.6 | 6.4 | 0.00 | 0.00 | 0.00 | 83 | 1020.8 |
| 20260507052520 | 12 | 22 | 0.0 | 4.8 | 0.00 | 0.00 | 0.00 | 82 | 1020.7 |
| 20260507052231 | 12 | 327 | 1.6 | 6.4 | 0.00 | 0.00 | 0.00 | 82 | 1020.9 |
| 20260507051504 | 12 | 351 | 3.2 | 8.0 | 0.00 | 0.00 | 0.00 | 82 | 1020.7 |
| 20260507050956 | 12 | 53 | 0.0 | 6.4 | 0.00 | 0.00 | 0.00 | 82 | 1020.7 |
| 20260507050709 | 12 | 8 | 3.2 | 4.8 | 0.00 | 0.00 | 0.00 | 81 | 1021.0 |
| 20260507045937 | 12 | 319 | 3.2 | 4.8 | 0.00 | 0.00 | 0.00 | 81 | 1020.9 |
| 20260507045432 | 12 | 29 | 4.8 | 8.0 | 0.00 | 0.00 | 0.00 | 81 | 1020.9 |
| 20260507044923 | 12 | 22 | 3.2 | 3.2 | 0.00 | 0.00 | 0.00 | 81 | 1020.7 |
| 20260507044416 | 12 | 302 | 3.2 | 6.4 | 0.00 | 0.00 | 0.00 | 81 | 1020.9 |
| 20260507043911 | 12 | 96 | 4.8 | 9.7 | 0.00 | 0.00 | 0.00 | 81 | 1020.7 |
| 20260507043403 | 12 | 279 | 0.0 | 11.3 | 0.00 | 0.00 | 0.00 | 81 | 1020.7 |
| 20260507043119 | 12 | 318 | 1.6 | 9.7 | 0.00 | 0.00 | 0.00 | 81 | 1020.5 |
| 20260507042350 | 12 | 158 | 1.6 | 8.0 | 0.00 | 0.00 | 0.00 | 81 | 1020.6 |
| 20260507042106 | 12 | 62 | 4.8 | 9.7 | 0.00 | 0.00 | 0.00 | 80 | 1020.3 |
| 20260507041337 | 13 | 15 | 4.8 | 4.8 | 0.00 | 0.00 | 0.00 | 80 | 1020.6 |
| 20260507040832 | 13 | 228 | 0.0 | 9.7 | 0.00 | 0.00 | 0.00 | 80 | 1020.5 |
| 20260507040545 | 13 | 211 | 3.2 | 6.4 | 0.00 | 0.00 | 0.00 | 80 | 1020.5 |
| 20260507035816 | 13 | 55 | 3.2 | 6.4 | 0.00 | 0.00 | 0.00 | 80 | 1020.5 |
| 20260507035306 | 13 | 40 | 4.8 | 9.7 | 0.00 | 0.00 | 0.00 | 79 | 1020.3 |
| 20260507035021 | 13 | 19 | 8.0 | 9.7 | 0.00 | 0.00 | 0.00 | 79 | 1020.4 |
| 20260507034510 | 13 | 23 | 8.0 | 9.7 | 0.00 | 0.00 | 0.00 | 79 | 1020.2 |
| 20260507033744 | 13 | 306 | 3.2 | 8.0 | 0.00 | 0.00 | 0.00 | 79 | 1020.2 |
| 20260507033723 | 13 | 9 | 4.8 | 8.0 | 0.00 | 0.00 | 0.00 | 79 | 1020.1 |
| 20260507032730 | 13 | 26 | 4.8 | 4.8 | 0.00 | 0.00 | 0.00 | 79 | 1020.0 |
| 20260507032216 | 13 | 108 | 3.2 | 6.4 | 0.00 | 0.00 | 0.00 | 79 | 1019.8 |
| 20260507031711 | 13 | 296 | 0.0 | 9.7 | 0.00 | 0.00 | 0.00 | 79 | 1020.0 |
| 20260507031203 | 13 | 15 | 3.2 | 9.7 | 0.00 | 0.00 | 0.00 | 78 | 1019.7 |
| 20260507030658 | 13 | 26 | 3.2 | 8.0 | 0.00 | 0.00 | 0.00 | 78 | 1019.7 |
| 20260507030150 | 14 | 73 | 4.8 | 8.0 | 0.00 | 0.00 | 0.00 | 78 | 1019.6 |
| 20260507025645 | 14 | 3 | 3.2 | 8.0 | 0.00 | 0.00 | 0.00 | 77 | 1019.6 |
| 20260507025130 | 14 | 18 | 4.8 | 9.7 | 0.00 | 0.00 | 0.00 | 77 | 1019.5 |
| 20260507024626 | 14 | 9 | 1.6 | 9.7 | 0.00 | 0.00 | 0.00 | 77 | 1019.5 |
| 20260507024117 | 14 | 311 | 3.2 | 9.7 | 0.00 | 0.00 | 0.00 | 77 | 1019.4 |
| 20260507023613 | 15 | 33 | 4.8 | 6.4 | 0.00 | 0.00 | 0.00 | 76 | 1019.4 |
| 20260507023059 | 15 | 12 | 3.2 | 9.7 | 0.00 | 0.00 | 0.00 | 76 | 1019.4 |
| 20260507022554 | 15 | 284 | 3.2 | 4.8 | 0.00 | 0.00 | 0.00 | 75 | 1019.4 |
| 20260507022045 | 15 | 334 | 11.3 | 12.9 | 0.00 | 0.00 | 0.00 | 73 | 1019.2 |
| 20260507021801 | 16 | 180 | 3.2 | 8.0 | 0.00 | 0.00 | 0.00 | 72 | 1019.3 |
| 20260507021026 | 16 | 30 | 4.8 | 6.4 | 0.00 | 0.00 | 0.00 | 72 | 1019.3 |
| 20260507020521 | 16 | 214 | 4.8 | 6.4 | 0.00 | 0.00 | 0.00 | 73 | 1019.2 |
| 20260507020234 | 16 | 186 | 1.6 | 9.7 | 0.00 | 0.00 | 0.00 | 72 | 1019.2 |
| 20260507015503 | 16 | 339 | 6.4 | 8.0 | 0.00 | 0.00 | 0.00 | 72 | 1019.2 |
| 20260507015000 | 17 | 283 | 0.0 | 4.8 | 0.00 | 0.00 | 0.00 | 70 | 1019.1 |
| 20260507014448 | 17 | 25 | 6.4 | 9.7 | 0.00 | 0.00 | 0.00 | 70 | 1019.3 |
| 20260507013943 | 17 | 31 | 4.8 | 9.7 | 0.00 | 0.00 | 0.00 | 70 | 1019.4 |
| 20260507013916 | 16 | 18 | 3.2 | 6.4 | 0.00 | 0.00 | 0.00 | 72 | 1019.4 |
| 20260507013144 | 16 | 68 | 1.6 | 8.0 | 0.00 | 0.00 | 0.00 | 73 | 1019.5 |
| 20260507012411 | 16 | 55 | 4.8 | 9.7 | 0.00 | 0.00 | 0.00 | 72 | 1019.4 |
| 20260507012125 | 16 | 39 | 8.0 | 8.0 | 0.00 | 0.00 | 0.00 | 72 | 1019.4 |
| 20260507011357 | 16 | 293 | 4.8 | 11.3 | 0.00 | 0.00 | 0.00 | 71 | 1019.4 |
| 20260507010852 | 17 | 349 | 1.6 | 9.7 | 0.00 | 0.00 | 0.00 | 70 | 1019.3 |
| 20260507010343 | 17 | 330 | 6.4 | 9.7 | 0.00 | 0.00 | 0.00 | 69 | 1019.5 |
| 20260507005835 | 17 | 104 | 3.2 | 12.9 | 0.00 | 0.00 | 0.00 | 69 | 1019.2 |
| 20260507005330 | 18 | 93 | 0.0 | 11.3 | 0.00 | 0.00 | 0.00 | 68 | 1019.2 |
| 20260507005040 | 17 | 343 | 8.0 | 12.9 | 0.00 | 0.00 | 0.00 | 68 | 1019.1 |
| 20260507004316 | 18 | 340 | 9.7 | 17.7 | 0.00 | 0.00 | 0.00 | 67 | 1019.0 |
| 20260507003808 | 18 | 108 | 4.8 | 8.0 | 0.00 | 0.00 | 0.00 | 66 | 1019.1 |
| 20260507003525 | 18 | 58 | 3.2 | 11.3 | 0.00 | 0.00 | 0.00 | 67 | 1019.1 |
| 20260507002755 | 18 | 299 | 1.6 | 11.3 | 0.00 | 0.00 | 0.00 | 67 | 1019.2 |
| 20260507002248 | 18 | 313 | 6.4 | 9.7 | 0.00 | 0.00 | 0.00 | 68 | 1019.2 |
| 20260507001736 | 18 | 39 | 3.2 | 11.3 | 0.00 | 0.00 | 0.00 | 67 | 1019.0 |
| 20260507001231 | 18 | 126 | 6.4 | 6.4 | 0.00 | 0.00 | 0.00 | 69 | 1019.0 |
| 20260507000943 | 18 | 319 | 4.8 | 6.4 | 0.00 | 0.00 | 0.00 | 69 | 1019.2 |
| 20260507000216 | 18 | 201 | 6.4 | 6.4 | 0.00 | 0.00 | 0.00 | 69 | 1019.0 |
| 20260506235711 | 18 | 310 | 4.8 | 14.5 | 0.00 | 0.00 | 0.00 | 69 | 1019.1 |
| 20260506235202 | 19 | 20 | 3.2 | 9.7 | 0.00 | 0.00 | 0.00 | 68 | 1019.0 |
| 20260506234656 | 19 | 34 | 6.4 | 9.7 | 0.00 | 0.00 | 0.00 | 68 | 1019.0 |
| 20260506234148 | 18 | 40 | 3.2 | 6.4 | 0.00 | 0.00 | 0.00 | 69 | 1019.0 |
| 20260506233639 | 18 | 47 | 4.8 | 9.7 | 0.00 | 0.00 | 0.00 | 69 | 1019.1 |
| 20260506233134 | 18 | 352 | 3.2 | 16.1 | 0.00 | 0.00 | 0.00 | 69 | 1018.8 |
| 20260506232844 | 19 | 66 | 4.8 | 6.4 | 0.00 | 0.00 | 0.00 | 68 | 1018.8 |
| 20260506232116 | 20 | 14 | 4.8 | 6.4 | 0.00 | 0.00 | 0.00 | 67 | 1018.7 |
| 20260506231608 | 20 | 135 | 6.4 | 8.0 | 0.00 | 0.00 | 0.00 | 68 | 1019.0 |
| 20260506231103 | 20 | 326 | 4.8 | 8.0 | 0.00 | 0.00 | 0.00 | 66 | 1019.0 |
| 20260506230814 | 20 | 325 | 8.0 | 8.0 | 0.00 | 0.00 | 0.00 | 66 | 1018.8 |
| 20260506230049 | 20 | 311 | 3.2 | 14.5 | 0.00 | 0.00 | 0.00 | 67 | 1018.8 |
| 20260506225542 | 20 | 286 | 4.8 | 6.4 | 0.00 | 0.00 | 0.00 | 65 | 1019.0 |
| 20260506225037 | 21 | 258 | 3.2 | 4.8 | 0.00 | 0.00 | 0.00 | 64 | 1019.1 |
| 20260506224528 | 21 | 78 | 3.2 | 8.0 | 0.00 | 0.00 | 0.00 | 63 | 1019.1 |
| 20260506224023 | 21 | 317 | 0.0 | 8.0 | 0.00 | 0.00 | 0.00 | 64 | 1019.1 |
| 20260506223509 | 20 | 255 | 3.2 | 8.0 | 0.00 | 0.00 | 0.00 | 66 | 1019.2 |
| 20260506223004 | 20 | 282 | 0.0 | 6.4 | 0.00 | 0.00 | 0.00 | 68 | 1019.3 |
| 20260506222450 | 19 | 46 | 0.0 | 4.8 | 0.00 | 0.00 | 0.00 | 68 | 1019.3 |
| 20260506221945 | 19 | 76 | 0.0 | 4.8 | 0.00 | 0.00 | 0.00 | 69 | 1019.4 |
| 20260506221431 | 19 | 38 | 3.2 | 6.4 | 0.00 | 0.00 | 0.00 | 68 | 1019.5 |
| 20260506220926 | 19 | 355 | 4.8 | 6.4 | 0.00 | 0.00 | 0.00 | 68 | 1019.4 |
| 20260506220417 | 19 | 338 | 1.6 | 8.0 | 0.00 | 0.00 | 0.00 | 69 | 1019.5 |
| 20260506215912 | 18 | 351 | 8.0 | 8.0 | 0.00 | 0.00 | 0.00 | 69 | 1019.5 |
| 20260506215404 | 18 | 357 | 6.4 | 12.9 | 0.00 | 0.00 | 0.00 | 69 | 1019.5 |
| 20260506214855 | 18 | 36 | 0.0 | 4.8 | 0.00 | 0.00 | 0.00 | 68 | 1019.4 |
| 20260506214350 | 19 | 113 | 6.4 | 6.4 | 0.00 | 0.00 | 0.00 | 68 | 1019.6 |
| 20260506213836 | 19 | 8 | 3.2 | 8.0 | 0.00 | 0.00 | 0.00 | 67 | 1019.4 |
| 20260506213331 | 20 | 290 | 0.0 | 9.7 | 0.00 | 0.00 | 0.00 | 67 | 1019.3 |
| 20260506212823 | 20 | 191 | 1.6 | 8.0 | 0.00 | 0.00 | 0.00 | 67 | 1019.1 |
| 20260506212318 | 19 | 93 | 3.2 | 8.0 | 0.00 | 0.00 | 0.00 | 69 | 1019.5 |
| 20260506211811 | 18 | 112 | 0.0 | 4.8 | 0.00 | 0.00 | 0.00 | 71 | 1019.5 |
| 20260506211306 | 18 | 163 | 1.6 | 8.0 | 0.00 | 0.00 | 0.00 | 71 | 1019.6 |
| 20260506210752 | 18 | 300 | 3.2 | 6.4 | 0.00 | 0.00 | 0.00 | 70 | 1019.8 |
| 20260506210247 | 18 | 124 | 4.8 | 6.4 | 0.00 | 0.00 | 0.00 | 72 | 1019.9 |
| 20260506205738 | 18 | 180 | 3.2 | 8.0 | 0.00 | 0.00 | 0.00 | 72 | 1019.8 |
| 20260506205233 | 18 | 104 | 3.2 | 6.4 | 0.00 | 0.00 | 0.00 | 72 | 1020.0 |
| 20260506204720 | 18 | 34 | 0.0 | 4.8 | 0.00 | 0.00 | 0.00 | 71 | 1020.0 |
| 20260506204215 | 18 | 140 | 0.0 | 4.8 | 0.00 | 0.00 | 0.00 | 71 | 1019.9 |
| 20260506203707 | 18 | 359 | 1.6 | 4.8 | 0.00 | 0.00 | 0.00 | 71 | 1019.8 |
| 20260506203201 | 17 | 23 | 3.2 | 6.4 | 0.00 | 0.00 | 0.00 | 72 | 1019.9 |
| 20260506202654 | 17 | 315 | 6.4 | 6.4 | 0.00 | 0.00 | 0.00 | 71 | 1019.8 |
| 20260506202149 | 18 | 68 | 1.6 | 3.2 | 0.00 | 0.00 | 0.00 | 71 | 1019.7 |
| 20260506201640 | 17 | 117 | 0.0 | 3.2 | 0.00 | 0.00 | 0.00 | 73 | 1019.7 |
| 20260506201136 | 17 | 49 | 1.6 | 4.8 | 0.00 | 0.00 | 0.00 | 74 | 1019.8 |
| 20260506200621 | 17 | 109 | 1.6 | 4.8 | 0.00 | 0.00 | 0.00 | 74 | 1019.9 |
| 20260506200336 | 17 | 6 | 3.2 | 4.8 | 0.00 | 0.00 | 0.00 | 76 | 1020.1 |
| 20260506195602 | 16 | 115 | 0.0 | 8.0 | 0.00 | 0.00 | 0.00 | 76 | 1020.1 |
| 20260506195057 | 16 | 240 | 0.0 | 3.2 | 0.00 | 0.00 | 0.00 | 77 | 1020.1 |
| 20260506194549 | 16 | 8 | 3.2 | 6.4 | 0.00 | 0.00 | 0.00 | 78 | 1020.4 |
| 20260506194044 | 16 | 319 | 8.0 | 8.0 | 0.00 | 0.00 | 0.00 | 78 | 1020.2 |
| 20260506193536 | 16 | 23 | 1.6 | 6.4 | 0.00 | 0.00 | 0.00 | 78 | 1020.5 |
| 20260506193030 | 16 | 310 | 3.2 | 6.4 | 0.00 | 0.00 | 0.00 | 78 | 1020.3 |
| 20260506192524 | 16 | 341 | 1.6 | 3.2 | 0.00 | 0.00 | 0.00 | 76 | 1020.3 |
| 20260506192015 | 16 | 309 | 0.0 | 8.0 | 0.00 | 0.00 | 0.00 | 76 | 1020.6 |
| 20260506191504 | 16 | 180 | 1.6 | 8.0 | 0.00 | 0.00 | 0.00 | 76 | 1020.4 |
| 20260506191000 | 16 | 180 | 3.2 | 3.2 | 0.00 | 0.00 | 0.00 | 76 | 1020.2 |
| 20260506190711 | 16 | 269 | 0.0 | 4.8 | 0.00 | 0.00 | 0.00 | 77 | 1020.2 |
| 20260506185943 | 16 | 225 | 6.4 | 9.7 | 0.00 | 0.00 | 0.00 | 76 | 1020.3 |
| 20260506185439 | 16 | 260 | 3.2 | 4.8 | 0.00 | 0.00 | 0.00 | 77 | 1020.3 |
| 20260506184930 | 16 | 242 | 3.2 | 4.8 | 0.00 | 0.00 | 0.00 | 77 | 1020.2 |
| 20260506184426 | 16 | 247 | 0.0 | 4.8 | 0.00 | 0.00 | 0.00 | 77 | 1020.2 |
| 20260506183414 | 15 | 284 | 1.6 | 3.2 | 0.00 | 0.00 | 0.00 | 79 | 1020.2 |
| 20260506182907 | 16 | 149 | 0.0 | 4.8 | 0.00 | 0.00 | 0.00 | 80 | 1020.3 |
| 20260506182401 | 15 | 289 | 3.2 | 8.0 | 0.00 | 0.00 | 0.00 | 80 | 1020.0 |
| 20260506181855 | 15 | 69 | 0.0 | 6.4 | 0.00 | 0.00 | 0.00 | 82 | 1020.2 |
| 20260506181348 | 15 | 97 | 3.2 | 3.2 | 0.00 | 0.00 | 0.00 | 83 | 1020.3 |
| 20260506180841 | 15 | 99 | 0.0 | 3.2 | 0.00 | 0.00 | 0.00 | 83 | 1020.4 |
| 20260506180335 | 14 | 168 | 0.0 | 3.2 | 0.00 | 0.00 | 0.00 | 83 | 1020.3 |
| 20260506175821 | 14 | 226 | 4.8 | 6.4 | 0.00 | 0.00 | 0.00 | 83 | 1020.4 |
| 20260506175316 | 15 | 134 | 0.0 | 3.2 | 0.00 | 0.00 | 0.00 | 82 | 1020.2 |
| 20260506174807 | 15 | 330 | 0.0 | 3.2 | 0.00 | 0.00 | 0.00 | 83 | 1020.3 |
| 20260506174524 | 14 | 319 | 0.0 | 3.2 | 0.00 | 0.00 | 0.00 | 83 | 1020.3 |
| 20260506173750 | 14 | 356 | 0.0 | 3.2 | 0.00 | 0.00 | 0.00 | 84 | 1020.2 |
| 20260506173244 | 14 | 78 | 0.0 | 3.2 | 0.00 | 0.00 | 0.00 | 85 | 1020.2 |
| 20260506172736 | 13 | 190 | 3.2 | 6.4 | 0.00 | 0.00 | 0.00 | 84 | 1020.1 |
| 20260506172231 | 14 | 195 | 1.6 | 8.0 | 0.00 | 0.00 | 0.00 | 84 | 1020.2 |
| 20260506171717 | 14 | 214 | 0.0 | 1.6 | 0.00 | 0.00 | 0.00 | 84 | 1020.2 |
| 20260506171432 | 13 | 231 | 3.2 | 4.8 | 0.00 | 0.00 | 0.00 | 84 | 1020.1 |
| 20260506170704 | 13 | 238 | 1.6 | 3.2 | 0.00 | 0.00 | 0.00 | 85 | 1020.0 |
| 20260506170421 | 13 | 221 | 1.6 | 6.4 | 0.00 | 0.00 | 0.00 | 85 | 1020.0 |
| 20260506165905 | 13 | 215 | 1.6 | 3.2 | 0.00 | 0.00 | 0.00 | 85 | 1020.1 |
| 20260506165140 | 13 | 196 | 4.8 | 4.8 | 0.00 | 0.00 | 0.00 | 85 | 1020.2 |
| 20260506164631 | 13 | 213 | 3.2 | 3.2 | 0.00 | 0.00 | 0.00 | 85 | 1020.3 |
| 20260506164127 | 13 | 233 | 1.6 | 4.8 | 0.00 | 0.00 | 0.00 | 85 | 1020.3 |
| 20260506163613 | 13 | 209 | 1.6 | 1.6 | 0.00 | 0.00 | 0.00 | 85 | 1020.2 |
| 20260506163108 | 13 | 184 | 3.2 | 6.4 | 0.00 | 0.00 | 0.00 | 84 | 1020.2 |
| 20260506162600 | 13 | 275 | 1.6 | 4.8 | 0.00 | 0.00 | 0.00 | 85 | 1020.0 |
| 20260506162056 | 13 | 128 | 1.6 | 6.4 | 0.00 | 0.00 | 0.00 | 84 | 1020.1 |
| 20260506161548 | 13 | 118 | 0.0 | 4.8 | 0.00 | 0.00 | 0.00 | 85 | 1020.2 |
| 20260506161300 | 13 | 312 | 1.6 | 3.2 | 0.00 | 0.00 | 0.00 | 85 | 1020.2 |
| 20260506160528 | 13 | 222 | 4.8 | 4.8 | 0.00 | 0.00 | 0.00 | 84 | 1020.0 |
| 20260506160023 | 13 | 160 | 0.0 | 3.2 | 0.00 | 0.00 | 0.00 | 84 | 1019.8 |
| 20260506155515 | 13 | 7 | 1.6 | 3.2 | 0.00 | 0.00 | 0.00 | 85 | 1019.7 |
| 20260506155007 | 13 | 82 | 3.2 | 3.2 | 0.00 | 0.00 | 0.00 | 85 | 1019.7 |
| 20260506154502 | 13 | 216 | 3.2 | 3.2 | 0.00 | 0.00 | 0.00 | 86 | 1019.5 |
| 20260506153955 | 13 | 9 | 1.6 | 4.8 | 0.00 | 0.00 | 0.00 | 86 | 1019.5 |
| 20260506153449 | 13 | 114 | 0.0 | 6.4 | 0.00 | 0.00 | 0.00 | 86 | 1019.5 |
| 20260506152941 | 13 | 131 | 6.4 | 8.0 | 0.00 | 0.00 | 0.00 | 86 | 1019.5 |
| 20260506152436 | 13 | 78 | 1.6 | 6.4 | 0.00 | 0.00 | 0.00 | 87 | 1019.5 |
| 20260506152142 | 12 | 119 | 1.6 | 3.2 | 0.00 | 0.00 | 0.00 | 88 | 1019.7 |
| 20260506151417 | 12 | 147 | 0.0 | 3.2 | 0.00 | 0.00 | 0.00 | 88 | 1019.9 |
| 20260506150903 | 12 | 89 | 0.0 | 3.2 | 0.00 | 0.00 | 0.00 | 88 | 1020.2 |
| 20260506150358 | 12 | 356 | 1.6 | 4.8 | 0.00 | 0.00 | 0.00 | 88 | 1020.2 |
| 20260506145844 | 12 | 168 | 0.0 | 3.2 | 0.00 | 0.00 | 0.00 | 88 | 1020.2 |
| 20260506145339 | 12 | 20 | 0.0 | 3.2 | 0.00 | 0.00 | 0.00 | 88 | 1020.4 |
| 20260506144831 | 12 | 220 | 0.0 | 4.8 | 0.00 | 0.00 | 0.00 | 88 | 1020.1 |
| 20260506144541 | 12 | 77 | 1.6 | 4.8 | 0.00 | 0.00 | 0.00 | 88 | 1020.1 |
| 20260506144036 | 12 | 310 | 3.2 | 4.8 | 0.00 | 0.00 | 0.00 | 88 | 1019.8 |
| 20260506143308 | 12 | 342 | 0.0 | 3.2 | 0.00 | 0.00 | 0.00 | 88 | 1020.0 |
| 20260506142759 | 12 | 356 | 4.8 | 6.4 | 0.00 | 0.00 | 0.00 | 88 | 1020.1 |
| 20260506142508 | 12 | 24 | 4.8 | 8.0 | 0.00 | 0.00 | 0.00 | 88 | 1019.5 |
| 20260506142004 | 12 | 324 | 8.0 | 8.0 | 0.00 | 0.00 | 0.00 | 88 | 1019.5 |
| 20260506141459 | 12 | 335 | 0.0 | 4.8 | 0.00 | 0.00 | 0.00 | 88 | 1019.4 |
| 20260506141220 | 12 | 353 | 4.8 | 4.8 | 0.00 | 0.00 | 0.00 | 88 | 1019.1 |
| 20260506140224 | 12 | 23 | 0.0 | 3.2 | 0.00 | 0.00 | 0.00 | 88 | 1019.1 |
| 20260506135939 | 12 | 340 | 1.6 | 3.2 | 0.00 | 0.00 | 0.00 | 88 | 1019.1 |
| 20260506135205 | 12 | 13 | 0.0 | 3.2 | 0.00 | 0.00 | 0.00 | 88 | 1019.3 |
| 20260506134700 | 12 | 10 | 4.8 | 4.8 | 0.00 | 0.00 | 0.00 | 88 | 1019.1 |
| 20260506134153 | 12 | 341 | 3.2 | 4.8 | 0.00 | 0.00 | 0.00 | 88 | 1019.2 |
| 20260506133648 | 12 | 331 | 3.2 | 3.2 | 0.00 | 0.00 | 0.00 | 88 | 1019.0 |
| 20260506133401 | 12 | 337 | 0.0 | 3.2 | 0.00 | 0.00 | 0.00 | 88 | 1019.1 |
| 20260506132631 | 12 | 341 | 0.0 | 3.2 | 0.00 | 0.00 | 0.00 | 88 | 1019.0 |
| 20260506132121 | 12 | 62 | 0.0 | 1.6 | 0.00 | 0.00 | 0.00 | 88 | 1018.9 |
| 20260506131615 | 12 | 336 | 1.6 | 3.2 | 0.00 | 0.00 | 0.00 | 88 | 1019.0 |
| 20260506131101 | 12 | 340 | 4.8 | 4.8 | 0.00 | 0.00 | 0.00 | 88 | 1018.9 |
| 20260506130816 | 12 | 218 | 0.0 | 1.6 | 0.00 | 0.00 | 0.00 | 88 | 1018.8 |
| 20260506130042 | 12 | 252 | 0.0 | 1.6 | 0.00 | 0.00 | 0.00 | 88 | 1018.8 |
| 20260506130025 | 13 | 345 | 0.0 | 0.0 | 0.00 | 0.00 | 0.00 | 88 | 1018.6 |
| 20260506125243 | 13 | 306 | 0.0 | 1.6 | 0.00 | 0.00 | 0.00 | 88 | 1018.6 |
| 20260506124518 | 13 | 217 | 0.0 | 1.6 | 0.00 | 0.00 | 0.00 | 88 | 1018.6 |
| 20260506124009 | 13 | 341 | 0.0 | 1.6 | 0.00 | 0.00 | 0.00 | 88 | 1018.6 |
| 20260506123504 | 13 | 51 | 0.0 | 1.6 | 0.00 | 0.00 | 0.00 | 88 | 1018.5 |
| 20260506123218 | 13 | 82 | 0.0 | 1.6 | 0.00 | 0.00 | 0.00 | 87 | 1018.5 |
| 20260506122451 | 13 | 5 | 0.0 | 3.2 | 0.00 | 0.00 | 0.00 | 87 | 1018.5 |
| 20260506122204 | 13 | 115 | 0.0 | 1.6 | 0.00 | 0.00 | 0.00 | 87 | 1018.7 |
| 20260506121658 | 12 | 311 | 0.0 | 1.6 | 0.00 | 0.00 | 0.00 | 87 | 1018.9 |
| 20260506121151 | 12 | 353 | 0.0 | 3.2 | 0.00 | 0.00 | 0.00 | 87 | 1018.7 |
| 20260506120423 | 13 | 0 | 3.2 | 4.8 | 0.00 | 0.00 | 0.00 | 87 | 1018.6 |
| 20260506115918 | 12 | 315 | 0.0 | 1.6 | 0.00 | 0.00 | 0.00 | 87 | 1018.5 |
| 20260506115410 | 13 | 86 | 1.6 | 3.2 | 0.00 | 0.00 | 0.00 | 87 | 1018.5 |
| 20260506114905 | 13 | 309 | 0.0 | 1.6 | 0.00 | 0.00 | 0.00 | 87 | 1018.4 |
| 20260506114357 | 13 | 22 | 0.0 | 3.2 | 0.00 | 0.00 | 0.00 | 87 | 1018.4 |
| 20260506113852 | 13 | 310 | 1.6 | 3.2 | 0.00 | 0.00 | 0.00 | 86 | 1018.3 |
| 20260506113343 | 13 | 60 | 0.0 | 4.8 | 0.00 | 0.00 | 0.00 | 86 | 1018.3 |
| 20260506112838 | 13 | 337 | 1.6 | 3.2 | 0.00 | 0.00 | 0.00 | 86 | 1018.4 |
| 20260506112330 | 13 | 348 | 1.6 | 3.2 | 0.00 | 0.00 | 0.00 | 86 | 1018.2 |
| 20260506111822 | 13 | 343 | 1.6 | 3.2 | 0.00 | 0.00 | 0.00 | 86 | 1018.2 |
| 20260506111317 | 13 | 22 | 3.2 | 4.8 | 0.00 | 0.00 | 0.00 | 86 | 1018.2 |
| 20260506110815 | 13 | 353 | 3.2 | 4.8 | 0.00 | 0.00 | 0.00 | 86 | 1018.1 |
| 20260506110304 | 13 | 0 | 0.0 | 3.2 | 0.00 | 0.00 | 0.00 | 86 | 1018.1 |
| 20260506105757 | 13 | 226 | 0.0 | 1.6 | 0.00 | 0.00 | 0.00 | 86 | 1018.1 |
| 20260506105253 | 13 | 330 | 3.2 | 3.2 | 0.00 | 0.00 | 0.00 | 85 | 1017.8 |
| 20260506104736 | 13 | 333 | 3.2 | 3.2 | 0.00 | 0.00 | 0.00 | 85 | 1017.7 |
| 20260506104232 | 13 | 108 | 0.0 | 4.8 | 0.00 | 0.00 | 0.00 | 85 | 1017.8 |
| 20260506103725 | 13 | 9 | 0.0 | 3.2 | 0.00 | 0.00 | 0.00 | 85 | 1017.7 |
| 20260506103219 | 13 | 315 | 3.2 | 4.8 | 0.00 | 0.00 | 0.00 | 85 | 1017.5 |
| 20260506102711 | 13 | 129 | 0.0 | 1.6 | 0.00 | 0.00 | 0.00 | 86 | 1017.4 |
| 20260506102426 | 13 | 334 | 3.2 | 3.2 | 0.00 | 0.00 | 0.00 | 86 | 1017.4 |
| 20260506101655 | 13 | 326 | 1.6 | 3.2 | 0.00 | 0.00 | 0.00 | 86 | 1017.4 |
| 20260506101412 | 13 | 297 | 0.0 | 3.2 | 0.00 | 0.00 | 0.00 | 86 | 1017.3 |
| 20260506100642 | 13 | 322 | 1.6 | 3.2 | 0.00 | 0.00 | 0.00 | 86 | 1017.3 |
| 20260506100137 | 13 | 83 | 1.6 | 3.2 | 0.00 | 0.00 | 0.00 | 85 | 1017.3 |
| 20260506095623 | 13 | 344 | 4.8 | 4.8 | 0.00 | 0.00 | 0.00 | 85 | 1017.2 |
| 20260506095119 | 13 | 328 | 0.0 | 3.2 | 0.00 | 0.00 | 0.00 | 85 | 1017.3 |
| 20260506094604 | 13 | 226 | 3.2 | 3.2 | 0.00 | 0.00 | 0.00 | 86 | 1017.1 |
| 20260506094059 | 13 | 334 | 1.6 | 3.2 | 0.00 | 0.00 | 0.00 | 86 | 1017.1 |
| 20260506093550 | 13 | 328 | 3.2 | 4.8 | 0.00 | 0.00 | 0.00 | 85 | 1017.2 |
| 20260506093039 | 13 | 44 | 0.0 | 4.8 | 0.00 | 0.00 | 0.00 | 85 | 1017.1 |
| 20260506092534 | 13 | 43 | 0.0 | 1.6 | 0.00 | 0.00 | 0.00 | 85 | 1017.0 |
| 20260506092020 | 13 | 135 | 0.0 | 3.2 | 0.00 | 0.00 | 0.00 | 85 | 1017.2 |
| 20260506091516 | 13 | 317 | 0.0 | 4.8 | 0.00 | 0.00 | 0.00 | 85 | 1017.1 |
| 20260506091008 | 13 | 337 | 3.2 | 6.4 | 0.00 | 0.00 | 0.00 | 85 | 1017.1 |
| 20260506090503 | 13 | 302 | 1.6 | 3.2 | 0.00 | 0.00 | 0.00 | 85 | 1017.0 |
| 20260506085949 | 13 | 326 | 3.2 | 6.4 | 0.00 | 0.00 | 0.00 | 85 | 1016.8 |
| 20260506085444 | 13 | 354 | 0.0 | 3.2 | 0.00 | 0.00 | 0.00 | 85 | 1017.0 |
| 20260506085156 | 13 | 351 | 1.6 | 3.2 | 0.00 | 0.00 | 0.00 | 84 | 1016.8 |
| 20260506084426 | 13 | 345 | 3.2 | 4.8 | 0.00 | 0.00 | 0.00 | 84 | 1017.0 |
| 20260506083921 | 14 | 291 | 1.6 | 3.2 | 0.00 | 0.00 | 0.00 | 84 | 1017.1 |
| 20260506083406 | 14 | 330 | 3.2 | 4.8 | 0.00 | 0.00 | 0.00 | 85 | 1017.0 |
| 20260506082902 | 14 | 336 | 0.0 | 3.2 | 0.00 | 0.00 | 0.00 | 85 | 1016.9 |
| 20260506082352 | 14 | 195 | 0.0 | 3.2 | 0.00 | 0.00 | 0.00 | 85 | 1017.0 |
| 20260506081847 | 14 | 336 | 0.0 | 3.2 | 0.00 | 0.00 | 0.00 | 85 | 1017.0 |
| 20260506081337 | 14 | 278 | 0.0 | 3.2 | 0.00 | 0.00 | 0.00 | 85 | 1017.1 |
| 20260506080829 | 14 | 5 | 3.2 | 3.2 | 0.00 | 0.00 | 0.00 | 85 | 1017.0 |
| 20260506080545 | 14 | 0 | 0.0 | 4.8 | 0.00 | 0.00 | 0.00 | 84 | 1016.9 |